RH
88 78 76 77 77 84 82 84 85 82 86 85 89 83 76 74 77 75 83 83 64 71 87 57 67 74 54 42 32 33 45 42 34 28 23 18 20 17 14 14 14 12 16 36 43
84 82 83 82 78 82 78 79 82 82 83 84 87 78 81 76 61 50 71 87 73 68 76 52 66 66 57 45 38 40 45 38 26 22 23 19 20 16 20 17 14 16 22 42 45
78 84 87 84 81 81 80 81 82 79 80 84 87 86 78 73 53 39 45 75 84 75 77 48 53 63 58 43 39 36 31 26 21 26 27 22 22 14 20 17 15 16 16 31 47
78 88 88 85 85 80 83 81 75 80 84 84 84 88 82 62 59 38 46 68 84 77 59 59 45 68 61 56 38 38 28 20 24 29 33 25 19 21 20 17 15 16 23 23 40
82 87 89 86 87 88 87 84 83 82 86 87 88 89 75 67 50 45 74 70 82 79 51 51 47 57 59 49 40 40 28 25 29 37 35 24 22 22 21 19 21 22 24 22 22
87 86 90 90 88 88 90 86 85 86 84 77 81 77 65 71 37 36 61 76 84 76 48 44 43 44 49 49 41 36 35 32 29 36 37 37 28 27 24 20 22 21 21 19 21
90 90 92 95 91 87 90 85 83 85 85 87 85 76 62 52 40 66 69 75 66 84 48 42 39 42 44 53 40 39 42 36 32 32 36 35 37 35 25 21 22 20 19 18 17
88 90 85 94 95 87 88 79 86 85 90 88 87 73 67 43 44 45 71 85 72 70 49 43 47 38 45 41 47 48 42 51 34 35 31 34 34 24 24 22 21 17 17 16 16
91 86 91 94 82 88 80 83 86 89 88 85 81 66 52 46 43 46 66 75 59 78 48 49 59 48 48 55 59 50 47 39 31 28 34 40 27 21 24 25 23 20 19 18 18
87 92 94 95 82 86 82 82 80 76 75 72 70 66 44 40 44 58 64 64 64 63 61 76 77 76 58 53 60 48 42 28 28 39 32 34 33 23 24 23 25 21 19 19 19
88 93 96 80 84 84 79 66 59 67 58 52 50 46 52 66 76 60 72 67 72 59 76 88 93 92 56 37 29 26 31 24 25 37 38 33 32 25 25 27 26 23 21 18 17
92 94 96 78 87 71 72 53 61 70 65 44 46 45 45 88 88 87 68 58 86 68 56 95 96 64 41 34 33 36 32 32 34 38 38 31 35 31 28 26 23 23 22 21 20
98 94 91 81 70 67 66 73 74 72 72 52 53 55 64 90 95 81 69 72 75 56 69 71 75 71 73 46 42 37 40 33 39 45 38 38 39 33 31 27 26 24 22 20 21
98 94 89 72 84 71 64 81 84 71 88 66 82 79 91 88 88 76 83 92 75 70 76 82 62 80 76 53 39 43 31 34 47 46 36 36 24 37 31 31 28 25 23 25 28
99 97 78 82 69 64 76 76 78 71 92 81 90 82 84 93 87 87 85 88 87 94 86 94 78 89 61 51 38 39 44 47 48 48 48 44 40 32 28 34 32 30 31 34 34
99 94 82 76 72 80 79 73 71 97 94 100 92 96 90 76 78 92 88 70 62 84 85 93 87 89 65 68 47 49 49 49 48 51 68 44 35 35 30 29 32 32 33 35 37
99 90 81 78 62 84 82 73 96 90 92 100 99 81 56 65 76 85 92 91 93 100 100 99 98 89 78 82 62 52 60 88 88 86 59 42 49 29 21 26 30 33 34 36 38
97 72 76 73 78 81 73 89 89 84 100 87 94 70 91 73 74 74 77 74 58 69 99 100 100 98 91 84 92 74 58 67 64 64 50 44 43 28 24 29 31 34 37 38 39
85 68 72 73 86 86 81 96 91 95 96 99 63 84 77 60 73 83 63 60 57 54 89 95 99 93 86 82 71 88 76 46 48 44 44 35 31 30 26 29 29 35 38 40 41
82 64 59 77 89 74 86 93 96 86 80 70 69 58 60 60 63 65 52 49 55 46 42 60 94 69 68 67 59 64 46 69 78 64 43 34 27 24 34 33 30 34 38 38 41
71 56 68 84 83 62 99 92 87 64 67 65 54 55 52 53 49 49 51 52 44 44 40 45 53 80 55 59 56 54 57 51 49 45 35 23 23 23 28 30 33 35 38 39 46
76 90 70 81 77 64 69 68 72 61 60 61 48 46 46 47 50 46 50 46 42 38 44 47 54 77 70 50 47 46 45 42 63 58 53 46 34 23 24 27 31 36 38 40 49
87 61 70 82 86 74 69 67 62 56 52 48 48 46 44 45 53 46 46 50 44 42 43 42 62 83 78 58 53 60 49 43 47 71 78 40 37 25 24 29 30 37 38 45 51
66 87 65 55 61 60 62 68 58 61 50 46 45 42 44 45 42 52 53 52 48 46 57 41 50 60 61 78 61 76 58 51 76 85 47 37 37 34 30 30 34 35 37 49 51
61 79 77 85 62 63 59 56 53 53 48 44 45 43 42 48 46 48 50 54 51 55 46 44 88 69 55 53 79 70 63 61 91 61 74 34 33 31 26 32 34 35 47 54 51
77 90 73 76 61 62 62 53 56 57 56 48 47 45 41 42 41 47 47 44 45 48 45 50 87 76 80 54 58 72 55 56 58 54 48 44 44 28 29 32 39 42 55 58 50
61 74 93 74 60 60 62 58 57 59 61 56 44 44 44 53 48 39 38 36 39 44 48 52 68 76 69 58 58 67 54 52 52 48 48 59 40 32 37 41 46 51 60 53 50
Wind_Speed
20 21 20 20 19 18 17 16 17 17 14 15 15 13 11 11 12 13 12 11 22 7 5 14 15 14 13 11 16 9 13 17 24 23 19 10 13 13 5 11 5 6 4 5 6
22 22 20 18 18 17 17 15 15 15 14 15 15 14 11 10 16 22 13 16 16 13 12 18 18 17 11 15 9 13 15 23 20 19 10 12 12 13 8 12 12 8 5 3 7
24 23 20 19 18 17 16 15 15 13 14 13 13 12 10 8 16 26 22 25 21 19 16 14 21 16 13 11 16 15 19 19 16 4 1 11 15 15 12 12 13 12 11 4 4
24 23 20 20 18 17 15 15 15 14 13 12 12 10 8 10 7 8 23 28 27 23 21 14 20 17 15 14 20 15 22 14 10 3 2 11 12 10 13 4 5 2 5 3 6
24 23 20 19 18 18 15 14 14 14 12 10 9 8 8 12 15 9 2 19 27 27 28 20 22 19 17 19 15 18 11 16 5 7 7 12 15 13 12 5 3 5 5 5 3
25 24 22 19 18 17 15 13 13 13 10 9 9 7 11 17 13 15 11 2 24 28 29 26 19 22 11 8 20 11 16 11 12 9 8 9 12 9 10 9 10 9 10 8 8
28 27 25 22 18 15 13 12 13 11 11 9 8 9 13 16 5 5 10 21 10 31 24 28 21 21 9 6 11 5 19 7 15 14 6 9 14 18 15 9 11 11 12 12 12
30 29 28 22 17 12 10 11 12 12 11 12 8 8 7 12 23 22 8 18 17 28 28 26 21 20 6 4 11 13 13 16 15 12 11 11 14 19 20 17 19 17 14 14 14
31 32 28 22 13 9 9 9 11 12 14 10 7 9 11 4 20 19 18 20 15 28 23 23 14 17 13 14 11 14 14 17 13 20 10 15 9 12 8 7 11 12 12 13 14
33 31 32 17 7 4 5 7 8 5 3 6 6 5 11 7 11 10 13 13 6 18 16 12 10 10 12 15 15 21 23 20 18 10 17 18 15 6 8 9 12 12 11 11 12
32 30 30 10 2 1 3 2 4 4 6 5 2 11 8 15 5 9 15 12 8 21 14 12 7 15 27 25 18 15 19 14 13 8 10 16 14 17 11 13 14 13 13 13 14
29 26 23 11 7 4 3 3 5 4 6 3 8 9 6 1 3 13 10 16 11 23 19 9 7 17 21 19 14 9 16 14 5 10 8 12 12 9 13 15 15 12 12 12 10
27 23 17 8 6 7 7 5 1 3 4 3 1 3 3 2 7 10 5 6 17 24 19 12 8 10 11 17 14 12 14 14 8 8 8 3 12 13 3 4 4 7 9 4 3
26 22 16 4 6 6 5 5 1 3 2 4 5 4 3 7 6 3 5 1 1 21 13 1 6 18 13 17 15 13 10 9 7 12 5 8 3 10 10 7 6 6 7 7 7
27 20 13 10 3 3 5 3 2 3 1 4 6 4 6 3 12 6 6 4 6 9 5 4 12 13 19 15 16 6 9 10 7 6 1 8 5 9 12 10 8 8 8 6 5
29 18 12 4 3 1 2 4 6 4 7 2 3 4 6 12 11 7 3 6 10 9 8 5 4 4 2 7 4 14 14 8 4 1 5 9 8 10 11 11 9 8 8 5 4
26 16 10 5 4 2 6 4 1 6 2 8 4 3 13 14 10 6 3 3 6 5 2 2 3 3 5 9 3 10 13 4 4 4 3 4 5 6 10 14 10 8 7 4 2
24 12 8 7 5 5 9 3 8 4 5 4 3 13 7 7 6 6 7 11 8 10 3 3 5 1 1 3 6 13 13 3 6 6 6 4 6 2 12 13 8 4 2 1 1
17 4 5 5 7 5 4 4 2 1 4 4 3 6 4 8 5 4 6 9 4 4 4 2 5 4 1 4 2 5 5 2 1 3 2 6 4 3 8 11 5 4 3 1 0
10 5 3 4 4 4 2 4 2 1 3 5 3 4 3 4 4 3 5 4 5 1 2 4 5 5 8 10 5 4 7 2 1 5 5 5 5 3 16 16 8 5 2 0 1
3 3 2 5 3 2 3 4 1 2 3 4 3 3 6 7 4 3 3 3 2 3 2 7 2 3 2 3 4 3 3 1 3 2 3 4 3 5 15 16 7 1 1 1 1
5 2 2 3 1 2 3 1 0 2 2 2 3 3 4 5 3 2 4 4 2 3 4 2 5 5 2 2 5 5 4 8 3 4 1 4 4 3 15 15 4 1 0 1 0
5 3 1 2 1 1 2 2 1 2 2 1 1 1 3 4 2 4 3 2 3 1 2 5 5 4 2 2 2 5 7 4 2 3 4 3 5 5 10 6 4 2 2 1 1
3 3 3 1 2 3 1 2 3 2 1 1 1 1 5 4 2 5 5 2 2 4 6 1 2 2 0 3 3 4 8 8 4 2 3 5 8 11 10 5 3 2 2 2 2
3 2 3 3 1 7 4 2 2 2 0 0 3 2 2 2 2 3 5 7 2 1 1 1 2 3 3 4 3 3 7 11 6 8 3 3 6 13 0 4 3 4 1 3 3
3 3 4 4 8 7 1 2 4 1 2 3 2 3 2 1 4 2 6 6 4 6 4 1 2 2 1 1 5 6 9 11 14 15 13 11 9 8 1 2 3 3 1 2 3
7 3 3 4 5 4 1 4 2 2 1 3 2 4 3 4 3 2 2 1 1 4 7 5 5 4 3 3 5 9 16 16 11 9 16 11 8 4 4 4 4 2 2 2 2
Wind_Direction
321 321 319 317 318 315 313 306 301 295 292 286 282 262 275 296 286 267 250 217 213 210 221 196 207 214 202 214 221 232 225 228 230 235 240 230 201 215 255 253 198 199 315 58 101
324 317 312 313 313 310 308 303 301 297 294 287 282 264 266 292 280 260 228 220 213 210 215 193 190 194 192 207 197 210 217 219 230 240 245 225 221 210 207 215 220 211 160 98 146
325 320 315 309 308 304 304 303 300 294 289 283 276 268 257 283 282 264 224 222 213 205 216 205 190 188 204 203 206 214 228 227 238 304 75 247 221 241 212 216 222 209 189 158 173
326 320 313 309 304 302 301 299 299 294 293 284 270 265 244 247 249 28 195 208 209 199 207 200 194 189 205 199 209 231 224 244 199 202 226 235 228 205 229 211 235 128 77 235 181
324 321 314 307 301 299 295 292 294 292 289 273 261 248 236 227 244 285 51 208 197 194 202 194 197 192 207 204 208 216 228 219 168 159 218 226 231 219 217 182 156 164 217 242 236
325 320 312 303 296 296 289 287 289 289 295 287 260 239 229 247 249 249 236 268 197 196 197 198 205 194 215 214 207 205 237 224 208 183 180 208 222 221 235 232 218 231 243 237 239
326 322 314 298 289 289 284 285 285 286 289 280 274 232 241 236 245 180 226 243 256 195 194 201 205 198 200 191 205 254 214 197 212 195 194 205 239 226 244 214 234 231 243 244 255
331 330 323 313 281 274 276 284 283 283 284 278 255 236 249 243 247 254 255 233 247 193 194 193 217 199 215 173 179 201 204 213 215 206 216 190 241 218 221 239 243 241 245 248 245
339 333 326 313 297 259 282 279 278 284 277 259 230 222 253 217 228 243 219 206 190 182 182 193 211 205 198 183 181 205 205 207 194 200 180 201 244 199 176 221 236 238 240 247 253
344 341 335 319 286 232 273 283 278 277 261 214 237 232 242 249 223 206 228 220 185 175 152 183 190 194 201 191 197 198 213 200 207 191 220 216 235 204 226 221 245 249 245 242 247
349 349 354 16 107 192 324 273 206 193 222 256 325 241 11 349 208 206 176 199 170 169 179 175 174 192 196 200 213 235 203 223 202 146 199 220 236 233 219 240 247 253 249 246 250
351 356 10 53 80 51 360 339 36 1 302 232 263 275 302 72 300 239 171 181 182 171 181 172 207 202 196 206 210 255 197 192 158 146 211 209 235 233 240 245 250 263 267 265 266
351 356 5 19 41 44 26 0 288 339 254 100 2 341 289 356 244 127 148 188 194 169 190 195 145 226 264 197 184 199 195 192 196 169 221 255 240 229 213 240 237 240 247 246 220
347 351 357 337 318 346 14 341 292 290 293 32 3 103 221 245 23 350 47 23 124 159 149 176 143 182 208 189 192 180 203 165 157 180 209 194 222 177 171 170 164 144 144 135 134
341 340 345 43 5 31 317 346 358 264 75 329 317 319 254 239 160 22 25 274 127 117 133 111 201 194 196 191 198 188 153 167 179 214 275 191 248 131 166 169 154 142 135 128 113
336 324 341 309 34 131 284 319 293 244 44 330 263 241 159 185 106 149 68 71 87 62 39 29 32 344 211 54 141 136 129 118 110 195 235 213 227 167 185 173 151 140 136 128 92
336 316 313 315 349 296 316 288 288 14 294 9 333 346 85 72 74 71 88 88 105 120 123 78 18 60 23 88 35 175 169 136 168 188 231 133 202 335 149 146 146 136 134 127 94
334 312 280 286 292 293 300 243 54 353 351 335 326 54 47 29 62 36 114 95 108 107 120 99 114 50 248 125 177 186 194 232 191 192 159 159 217 160 149 131 137 145 124 179 180
347 323 278 288 299 283 270 48 87 68 315 334 65 63 48 76 101 56 52 79 104 77 82 106 79 79 81 207 133 174 199 27 31 38 175 173 142 144 159 166 172 129 192 155 311
338 310 278 291 300 261 352 84 3 171 290 260 52 311 100 96 95 172 71 52 101 72 277 147 103 120 153 152 161 193 144 163 197 173 211 177 190 166 180 181 177 171 164 91 258
329 298 85 329 244 223 30 51 295 211 273 326 28 111 128 148 143 67 46 98 79 113 205 148 106 127 183 215 179 137 183 226 312 313 293 158 146 20 174 171 146 142 108 311 290
322 315 351 353 330 314 99 99 80 354 171 285 311 41 152 143 160 91 118 66 88 153 136 27 105 146 119 55 329 327 239 204 232 179 8 323 89 215 157 165 130 344 243 270 307
335 303 31 4 44 40 143 160 286 339 21 322 149 320 217 142 137 122 104 38 88 100 147 160 142 131 153 223 205 231 211 224 88 5 203 262 119 160 142 157 209 253 292 272 329
304 330 333 251 0 318 204 210 138 155 44 4 66 205 166 161 18 148 126 117 19 71 16 32 125 312 22 81 93 202 211 202 167 180 185 237 132 158 166 201 211 268 326 336 9
348 37 1 329 44 327 278 302 256 166 174 293 139 292 226 172 153 143 129 143 132 113 106 7 108 75 39 81 101 236 197 204 193 218 223 32 197 171 281 285 318 311 349 332 339
7 359 339 287 294 292 201 218 279 218 283 170 265 149 180 331 8 188 186 188 176 178 167 103 110 84 271 236 239 251 231 209 217 227 240 256 262 283 354 300 300 300 314 300 305
11 335 297 296 298 267 28 343 329 253 138 299 278 200 185 80 41 15 65 99 125 190 186 170 148 184 157 210 246 252 228 211 205 207 219 224 236 209 305 309 294 266 202 251 322